GP1970 Weather Reports


Display with metric or nautical units.
time (UTC)temp
F
wind
direction
speed
MPH
gust
MPH
rain 1hr
in
rain 24hr
in
rain mn
in
humidity
%
barometer
mb
20260508004523 43 262 5.0 7.0 0.00 0.17 0.00 86 1003.9
20260508003527 43 240 5.0 8.0 0.00 0.17 0.00 85 1004.1
20260508002551 43 241 5.0 8.0 0.00 0.17 0.00 84 1004.2
20260508001536 44 270 7.0 11.0 0.00 0.17 0.00 84 1004.1
20260508000520 44 254 5.0 10.0 0.00 0.17 0.00 84 1004.0
20260507235603 44 232 5.0 7.0 0.00 0.17 0.00 83 1003.4
20260507234547 45 243 7.0 9.0 0.00 0.17 0.00 82 1003.4
20260507233531 46 250 5.0 8.0 0.00 0.17 0.00 82 1003.5
20260507232516 47 249 9.0 15.0 0.00 0.17 0.00 81 1003.5
20260507231520 48 281 7.0 12.0 0.00 0.17 0.00 80 1003.3
20260507230523 49 269 8.0 12.0 0.00 0.17 0.00 80 1002.9
20260507225521 49 281 9.0 13.0 0.00 0.17 0.17 80 1002.7
20260507224519 49 262 9.0 13.0 0.00 0.17 0.17 80 1002.8
20260507223516 48 243 7.0 11.0 0.00 0.17 0.17 81 1003.0
20260507222520 47 258 7.0 10.0 0.00 0.17 0.17 80 1002.9
20260507221524 48 250 8.0 12.0 0.00 0.17 0.17 80 1002.4
20260507220527 48 255 7.0 10.0 0.00 0.17 0.17 80 1003.1
20260507215531 48 257 6.0 8.0 0.00 0.17 0.17 80 1003.0
20260507214517 48 257 8.0 13.0 0.00 0.18 0.17 80 1002.4
20260507213540 48 273 8.0 11.0 0.00 0.19 0.17 80 1002.6
20260507212524 49 269 8.0 11.0 0.00 0.19 0.17 80 1002.7
20260507211528 49 272 7.0 10.0 0.00 0.19 0.17 80 1000.0
20260507210531 51 274 6.0 8.0 0.00 0.19 0.17 80 1001.9
20260507205537 50 251 9.0 15.0 0.00 0.19 0.17 80 1002.2
20260507204541 49 237 5.0 8.0 0.00 0.19 0.17 82 1002.0
20260507203524 48 224 4.0 6.0 0.00 0.19 0.17 83 1002.2
20260507202528 48 4.0 4.0 0.00 0.19 0.17 84 1002.3
20260507201532 46 236 4.0 6.0 0.00 0.19 0.17 84 1002.2
20260507200517 47 234 6.0 9.0 0.00 0.19 0.17 83 1002.5
20260507195521 47 250 6.0 9.0 0.00 0.19 0.17 83 1002.3
20260507194544 47 259 5.0 9.0 0.00 0.19 0.17 83 1002.2
20260507193528 47 286 8.0 11.0 0.00 0.19 0.17 82 1002.4
20260507192531 49 254 7.0 9.0 0.00 0.19 0.17 82 1002.5
20260507191517 49 284 7.0 11.0 0.00 0.19 0.17 82 1002.3
20260507190541 50 300 8.0 13.0 0.00 0.19 0.17 81 1002.1
20260507185525 52 282 5.0 7.0 0.00 0.19 0.17 80 1001.8
20260507184522 52 292 5.0 8.0 0.00 0.19 0.17 80 1001.8
20260507183520 52 275 3.0 5.0 0.00 0.19 0.17 81 1001.9
20260507182517 54 281 3.0 4.0 0.00 0.19 0.17 84 1002.0
20260507181535 50 272 3.0 5.0 0.00 0.21 0.17 86 1002.5
20260507180545 51 234 1.0 3.0 0.00 0.21 0.17 86 1002.2
20260507175528 51 256 4.0 6.0 0.00 0.22 0.17 86 1002.4
20260507174532 51 254 4.0 6.0 0.00 0.23 0.17 87 1002.7
20260507173537 50 229 5.0 7.0 0.00 0.25 0.17 88 1002.5
20260507172521 47 230 5.0 8.0 0.00 0.26 0.17 90 1002.4
20260507171525 47 242 6.0 9.0 0.01 0.27 0.17 91 1002.6
20260507170528 47 240 7.0 11.0 0.02 0.29 0.17 93 1002.8
20260507165532 47 215 3.0 6.0 0.05 0.30 0.17 94 1002.6
20260507164518 47 248 4.0 8.0 0.08 0.32 0.17 94 1002.8
20260507163541 46 210 5.0 9.0 0.13 0.33 0.17 94 1003.0
20260507162525 46 224 6.0 9.0 0.13 0.34 0.17 96 1003.0
20260507161529 46 231 3.0 5.0 0.14 0.34 0.16 96 1002.7
20260507160532 46 246 4.0 6.0 0.15 0.35 0.15 96 1003.2
20260507155538 46 187 2.0 3.0 0.12 0.34 0.12 95 1002.8
20260507154522 46 256 2.0 4.0 0.09 0.33 0.09 95 1003.1
20260507153525 46 281 3.0 4.0 0.04 0.30 0.04 95 1003.0
20260507152529 46 265 2.0 4.0 0.04 0.32 0.04 95 1003.2
20260507151532 46 257 3.0 4.0 0.02 0.33 0.02 94 1003.9
20260507150518 46 240 3.0 4.0 0.00 0.34 0.00 94 1003.8
20260507145522 46 284 2.0 3.0 0.00 0.36 0.00 94 1003.7
20260507144525 46 298 3.0 5.0 0.00 0.38 0.00 94 1003.7
20260507143523 46 264 3.0 5.0 0.00 0.40 0.00 94 1003.8
20260507142514 46 224 3.0 4.0 0.00 0.42 0.00 94 1003.9
20260507141518 46 261 3.0 6.0 0.00 0.44 0.00 94 1003.8
20260507140516 46 274 5.0 7.0 0.00 0.46 0.00 94 1004.1
20260507135525 46 256 6.0 9.0 0.00 0.48 0.00 94 1003.8
20260507134529 46 261 4.0 5.0 0.00 0.49 0.00 95 1003.7
20260507133515 46 254 6.0 8.0 0.00 0.50 0.00 95 1003.5
20260507132518 46 215 4.0 7.0 0.00 0.52 0.00 95 1003.4
20260507131522 46 241 6.0 8.0 0.00 0.52 0.00 95 1003.3
20260507130526 46 231 5.0 7.0 0.00 0.54 0.00 95 1003.4
20260507125529 46 251 4.0 7.0 0.00 0.56 0.00 96 1003.5
20260507124515 45 239 5.0 7.0 0.00 0.57 0.00 97 1004.1
20260507123519 45 251 5.0 7.0 0.00 0.58 0.00 97 1004.1
20260507122542 45 229 4.0 7.0 0.00 0.59 0.00 97 1003.8
20260507121526 45 223 4.0 6.0 0.00 0.60 0.00 98 1003.9
20260507120530 44 207 4.0 6.0 0.00 0.62 0.00 98 1003.4
20260507115535 44 220 3.0 5.0 0.00 0.63 0.00 98 1004.1
20260507114519 44 211 3.0 6.0 0.00 0.64 0.00 99 1003.9
20260507113522 44 204 3.0 5.0 0.00 0.64 0.00 99 1003.6
20260507112526 44 215 2.0 4.0 0.00 0.64 0.00 99 1003.5
20260507111530 43 232 3.0 4.0 0.00 0.64 0.00 99 1004.0
20260507110515 43 238 3.0 5.0 0.00 0.64 0.00 99 1004.1
20260507105519 43 222 3.0 5.0 0.00 0.64 0.00 99 1003.6
20260507104523 42 252 3.0 5.0 0.00 0.64 0.00 99 1004.4
20260507103526 42 243 3.0 6.0 0.00 0.64 0.00 99 1003.9
20260507102524 42 249 3.0 5.0 0.00 0.64 0.00 99 1003.6
20260507101516 42 215 3.0 5.0 0.00 0.64 0.00 99 1003.5
20260507100519 42 141 1.0 2.0 0.00 0.64 0.00 99 1003.0
20260507095537 42 192 2.0 3.0 0.00 0.64 0.00 99 1003.7
20260507094526 42 195 2.0 3.0 0.00 0.64 0.00 99 1003.5
20260507093530 42 197 2.0 3.0 0.00 0.64 0.00 99 1003.7
20260507092515 42 228 2.0 3.0 0.00 0.64 0.00 99 1003.9
20260507091539 42 209 1.0 2.0 0.00 0.64 0.00 99 1004.2
20260507090523 42 220 1.0 2.0 0.00 0.64 0.00 99 1004.1
20260507085547 42 198 2.0 2.0 0.00 0.64 0.00 99 1004.2
20260507084530 42 190 1.0 3.0 0.00 0.64 0.00 99 1004.2
20260507083516 41 225 2.0 3.0 0.00 0.64 0.00 99 1004.2
20260507082519 41 247 1.0 2.0 0.00 0.64 0.00 99 1004.3
20260507081523 41 254 0.0 2.0 0.00 0.64 0.00 99 1004.3
20260507080527 41 0.0 0.0 0.00 0.64 0.00 99 1004.1
20260507075530 41 0.0 0.0 0.00 0.64 0.00 99 1004.2
20260507074516 41 225 1.0 2.0 0.00 0.64 0.00 99 1004.2
20260507073520 41 0.0 0.0 0.00 0.64 0.00 99 1004.3
20260507072523 41 249 1.0 3.0 0.00 0.64 0.00 99 1004.4
20260507071527 41 0.0 0.0 0.00 0.64 0.00 99 1004.4
20260507070551 41 0.0 0.0 0.00 0.64 0.00 99 1004.4
20260507065516 41 0.0 0.0 0.00 0.64 0.00 99 1004.4
20260507064520 40 0.0 0.0 0.00 0.64 0.00 99 1004.6
20260507063523 40 0.0 0.0 0.00 0.64 0.00 99 1004.7
20260507062527 40 0.0 0.0 0.00 0.64 0.00 99 1004.7
20260507061525 40 0.0 0.0 0.00 0.64 0.00 99 1004.7
20260507060516 40 0.0 0.0 0.00 0.64 0.00 99 1004.9
20260507055520 41 0.0 0.0 0.00 0.64 0.00 99 1005.1
20260507054517 41 203 0.0 2.0 0.00 0.64 0.00 99 1004.9
20260507053515 41 0.0 1.0 0.00 0.64 0.00 99 1005.1
20260507052551 41 0.0 0.0 0.00 0.64 0.00 99 1005.2
20260507051517 42 211 1.0 2.0 0.00 0.64 0.00 98 1005.4
20260507050520 42 214 2.0 3.0 0.00 0.64 0.00 98 1005.3
20260507045604 42 158 1.0 2.0 0.00 0.64 0.00 98 1005.3
20260507044528 42 165 0.0 2.0 0.00 0.64 0.00 98 1005.4
20260507043551 43 194 1.0 3.0 0.00 0.64 0.00 98 1005.3
20260507042517 43 221 2.0 5.0 0.00 0.64 0.00 98 1005.3
20260507041521 43 237 3.0 6.0 0.00 0.64 0.00 98 1005.5
20260507040524 43 267 3.0 5.0 0.00 0.64 0.00 98 1005.4
20260507035528 43 242 3.0 4.0 0.00 0.64 0.00 98 1005.7
20260507034531 42 215 2.0 4.0 0.00 0.64 0.00 98 1005.9
20260507033517 42 186 2.0 4.0 0.00 0.64 0.00 98 1005.8
20260507032521 42 218 2.0 3.0 0.00 0.64 0.00 98 1005.8
20260507031524 42 210 2.0 3.0 0.00 0.64 0.00 98 1005.9
20260507030528 42 247 2.0 4.0 0.00 0.64 0.00 98 1005.7
20260507025531 42 225 3.0 5.0 0.00 0.64 0.00 98 1005.8
20260507024517 42 203 2.0 3.0 0.00 0.64 0.00 98 1006.0
20260507023521 42 244 2.0 3.0 0.00 0.64 0.00 98 1005.9
20260507022524 42 221 2.0 3.0 0.00 0.64 0.00 98 1005.9
20260507021528 42 211 2.0 3.0 0.00 0.64 0.00 97 1006.0
20260507020526 43 194 1.0 2.0 0.00 0.64 0.00 97 1005.9
20260507015517 43 195 2.0 3.0 0.00 0.64 0.00 97 1005.8
20260507014521 42 214 2.0 3.0 0.00 0.64 0.00 97 1005.6
20260507013519 43 135 0.0 1.0 0.00 0.65 0.00 97 1005.8
20260507012516 43 193 2.0 2.0 0.00 0.68 0.00 97 1005.9
20260507011532 43 240 2.0 3.0 0.00 0.72 0.00 97 1005.9
20260507010557 42 241 2.0 3.0 0.00 0.72 0.00 96 1005.8
20260507005521 43 229 1.0 2.0 0.00 0.74 0.00 96 1006.1